Temp
47 48 49 49 49 49 49 49 50 52 53 55 56 56 58 61 63 65 65 63 65 67 71 75 76 76 76 75 75 74 74 74 73 73 73 73 73 73 73 73 73 73 73
45 45 46 47 48 48 47 47 48 49 51 52 54 55 56 59 61 63 64 63 63 65 67 72 74 76 77 76 76 75 74 74 74 73 73 73 72 72 73 73 73 72 73
45 45 44 45 46 46 46 47 48 48 49 50 51 53 55 57 58 60 62 63 62 62 66 70 73 74 75 76 76 75 74 74 73 73 72 72 72 72 72 72 72 72 72
46 45 44 44 45 44 45 45 46 45 45 47 48 50 52 55 56 58 60 62 63 63 65 69 70 72 74 75 76 76 74 73 73 73 72 72 71 72 72 72 72 71 71
45 44 43 44 44 43 43 44 44 43 43 44 46 48 50 51 52 56 58 60 61 62 62 65 66 68 70 73 75 76 75 74 73 72 72 72 72 72 72 72 71 71 71
44 43 43 43 43 42 42 42 41 43 42 43 44 45 47 50 53 54 56 60 62 62 62 61 65 67 66 70 73 74 75 74 73 73 72 72 71 72 72 72 71 71 71
43 42 42 42 42 41 41 41 40 39 40 42 40 42 44 46 49 53 55 57 59 61 62 62 62 66 69 67 70 72 74 74 73 73 72 71 71 72 72 72 71 71 71
43 42 41 40 40 40 40 40 39 38 39 41 37 37 36 42 50 48 54 58 63 62 61 62 63 66 67 70 68 69 72 74 74 73 72 71 71 72 72 72 72 71 71
42 41 41 40 39 39 38 39 39 37 35 38 39 36 32 34 36 46 45 50 53 51 54 52 53 53 64 68 69 68 67 70 73 73 73 72 71 72 72 72 72 72 71
41 41 40 40 39 39 38 38 40 38 37 34 37 40 40 38 30 30 41 43 45 51 50 49 50 49 53 53 63 66 65 66 71 73 73 72 70 71 72 72 72 72 71
41 41 40 39 38 38 38 38 37 37 38 36 35 36 36 37 38 33 30 36 43 46 47 48 48 48 52 51 53 66 64 66 70 72 73 73 73 72 72 72 72 72 71
39 40 40 39 39 38 37 38 38 37 36 37 37 36 35 33 33 33 32 34 35 39 44 46 47 47 49 51 52 51 61 65 68 71 73 73 72 72 72 71 71 71 70
36 37 38 37 37 37 37 37 36 36 36 35 36 36 37 36 36 35 33 32 31 36 39 45 48 48 51 48 47 47 52 59 65 69 72 72 71 70 70 70 70 70 70
36 37 37 37 36 37 37 36 36 35 36 35 35 36 36 37 37 36 33 31 28 31 36 39 47 46 47 45 46 46 48 49 52 62 70 71 69 68 68 69 69 68 68
36 36 36 35 35 35 35 34 34 33 34 34 35 35 35 36 37 37 36 35 31 25 28 37 40 46 44 44 45 45 46 48 49 52 53 65 65 65 66 66 66 66 67
34 34 34 34 34 34 34 33 32 33 32 33 34 34 34 35 35 36 35 35 34 31 26 35 38 42 43 44 44 44 46 46 49 52 54 55 61 62 63 63 64 64 64
32 32 32 31 31 31 32 31 31 31 30 31 32 32 32 34 33 34 35 35 34 34 29 34 39 41 40 40 41 43 45 45 48 50 51 52 59 61 60 61 62 62 62
30 31 31 30 30 31 31 31 30 31 30 30 30 31 31 34 32 33 33 33 33 34 31 29 35 36 37 41 40 40 44 46 46 49 51 51 52 60 61 60 60 61 61
29 29 30 29 29 30 30 31 31 31 31 31 31 30 30 31 30 31 32 32 33 35 34 33 32 36 37 40 39 40 41 42 47 49 50 51 52 57 60 60 59 59 60
27 28 29 29 29 30 31 31 32 31 31 31 31 31 31 30 30 30 31 31 33 32 33 33 32 33 35 39 40 37 38 42 41 47 49 49 52 56 59 59 58 58 56
28 28 28 29 31 31 32 31 32 31 31 31 31 32 32 32 33 33 32 31 31 31 31 32 31 32 33 35 37 39 37 39 40 44 45 45 46 57 58 57 57 54 55
28 28 28 28 29 32 35 36 36 32 32 31 31 32 32 33 34 34 34 34 33 30 30 31 30 30 33 36 39 38 37 36 34 44 39 40 45 47 55 60 58 56 55
28 27 28 29 29 32 36 38 38 34 33 33 31 32 33 36 35 34 35 36 35 36 36 32 30 32 34 37 38 36 37 37 35 37 36 37 43 44 50 58 56 55 54
26 27 28 29 30 31 36 37 37 34 33 34 35 35 33 33 34 34 33 32 33 34 35 36 34 34 37 39 39 39 37 36 38 38 38 34 42 44 48 49 54 54 54
27 27 28 29 29 29 35 36 36 33 33 35 34 33 34 34 36 37 33 30 32 33 38 39 39 39 40 41 41 38 34 33 32 36 38 37 40 41 47 48 55 54 54
26 28 28 29 31 30 34 36 35 32 32 33 36 34 36 35 35 37 33 30 29 31 34 35 36 38 40 39 40 38 36 33 33 32 39 35 39 39 36 44 44 55 55
MSLP
1024.06 1023.69 1023.41 1023.01 1022.59 1022.11 1021.92 1021.46 1020.91 1020.32 1019.72 1019.18 1018.85 1018.41 1017.85 1017.18 1016.53 1015.96 1015.60 1015.08 1014.59 1014.43 1013.90 1013.51 1013.67 1013.87 1014.22 1014.60 1014.86 1015.23 1015.60 1015.95 1016.20 1016.59 1016.89 1017.18 1017.53 1017.76 1018.13 1018.54 1018.90 1019.37 1019.81
1024.99 1024.72 1024.23 1023.52 1022.97 1022.86 1022.73 1022.19 1021.47 1020.67 1020.23 1019.70 1018.91 1018.52 1018.00 1017.36 1016.65 1016.06 1015.58 1015.19 1014.66 1014.27 1013.87 1013.32 1013.25 1013.30 1013.46 1013.83 1014.20 1014.65 1014.98 1015.37 1015.77 1016.15 1016.47 1016.86 1017.25 1017.56 1017.85 1018.21 1018.63 1019.09 1019.48
1024.85 1024.83 1024.58 1024.15 1023.75 1023.63 1023.04 1022.43 1021.81 1021.02 1020.60 1019.90 1019.09 1018.51 1017.85 1017.16 1016.66 1016.19 1015.44 1015.02 1014.63 1014.15 1013.54 1013.21 1012.85 1012.75 1012.86 1013.07 1013.48 1013.86 1014.29 1014.65 1015.18 1015.61 1016.00 1016.38 1016.89 1017.29 1017.65 1017.82 1018.26 1018.75 1019.27
1024.56 1024.47 1024.32 1023.82 1023.47 1023.36 1022.96 1022.33 1021.67 1020.97 1020.75 1020.20 1019.26 1018.65 1017.97 1017.20 1016.65 1016.14 1015.46 1014.97 1014.23 1013.98 1013.28 1012.64 1012.33 1012.20 1012.29 1012.34 1012.63 1013.17 1013.57 1013.96 1014.35 1014.89 1015.41 1015.86 1016.33 1016.90 1017.36 1017.64 1018.01 1018.45 1018.97
1024.59 1024.34 1024.07 1023.52 1023.28 1023.26 1022.92 1022.38 1021.96 1021.57 1020.99 1020.41 1019.42 1018.44 1017.60 1017.10 1016.62 1015.87 1015.16 1014.59 1013.96 1013.54 1013.33 1012.54 1012.18 1011.64 1011.66 1011.58 1011.88 1012.22 1012.76 1013.13 1013.53 1014.02 1014.68 1015.24 1015.73 1016.36 1016.87 1017.33 1017.77 1018.13 1018.49
1024.83 1024.57 1024.29 1023.82 1023.45 1023.07 1022.83 1022.53 1022.24 1022.15 1021.70 1020.70 1019.46 1018.66 1017.67 1016.82 1015.98 1015.16 1014.42 1013.78 1013.23 1012.88 1012.84 1012.50 1011.92 1011.26 1010.92 1010.92 1010.99 1011.29 1011.80 1012.24 1012.65 1013.03 1013.85 1014.46 1015.08 1015.63 1016.27 1016.84 1017.30 1017.80 1018.19
1024.91 1024.93 1024.54 1024.16 1023.70 1023.53 1023.05 1022.68 1022.32 1021.85 1021.37 1020.93 1019.68 1018.22 1017.57 1016.58 1015.38 1014.47 1013.64 1013.12 1012.44 1012.15 1011.76 1011.65 1011.45 1010.73 1010.01 1010.10 1010.25 1010.43 1010.73 1011.20 1011.77 1012.18 1012.80 1013.56 1014.17 1014.86 1015.52 1016.19 1016.70 1017.30 1017.70
1024.63 1024.49 1024.36 1024.12 1023.75 1023.39 1022.97 1022.70 1022.32 1022.17 1021.71 1021.09 1020.20 1019.28 1016.98 1015.90 1014.58 1014.68 1013.47 1012.75 1011.72 1011.44 1011.19 1010.97 1010.32 1009.86 1009.54 1008.87 1009.26 1009.60 1009.79 1010.13 1010.63 1011.31 1011.81 1012.49 1013.22 1013.84 1014.55 1015.42 1016.05 1016.61 1017.17
1024.27 1024.19 1024.13 1023.86 1023.61 1023.25 1022.81 1022.52 1022.43 1022.27 1021.65 1021.07 1020.87 1020.42 1018.77 1016.73 1016.52 1014.71 1014.26 1013.36 1012.80 1012.59 1012.02 1011.98 1011.14 1010.81 1009.40 1008.42 1008.32 1008.46 1008.76 1009.06 1009.43 1010.25 1010.86 1011.71 1012.25 1013.00 1013.52 1014.47 1015.21 1015.91 1016.36
1023.86 1023.73 1023.62 1023.48 1023.25 1022.80 1022.72 1022.47 1022.12 1021.86 1021.48 1020.92 1020.60 1020.35 1019.77 1018.78 1018.17 1016.07 1015.15 1014.53 1014.06 1012.78 1012.32 1012.10 1011.59 1011.15 1010.30 1009.75 1008.06 1006.69 1007.43 1008.04 1008.35 1009.04 1009.68 1010.67 1011.29 1012.10 1012.67 1013.48 1014.18 1015.04 1015.64
1023.34 1023.11 1023.03 1022.87 1022.73 1022.44 1022.21 1022.00 1021.75 1021.43 1021.13 1020.82 1020.49 1020.07 1019.54 1018.98 1018.44 1017.46 1015.72 1014.60 1013.91 1013.50 1012.84 1012.41 1011.58 1011.03 1010.51 1010.07 1009.48 1006.74 1006.28 1006.81 1007.29 1007.82 1008.49 1009.42 1010.19 1010.93 1011.55 1012.42 1013.19 1014.08 1014.79
1022.88 1022.67 1022.51 1022.28 1022.10 1021.93 1021.72 1021.46 1021.21 1021.04 1020.85 1020.51 1020.19 1019.87 1019.52 1019.00 1018.16 1017.54 1016.57 1015.82 1014.54 1013.54 1013.22 1012.38 1011.56 1011.02 1010.31 1009.53 1009.14 1007.41 1005.95 1005.72 1006.29 1006.78 1007.41 1008.01 1008.87 1009.63 1009.94 1011.16 1012.17 1013.05 1013.81
1022.51 1022.21 1022.06 1021.91 1021.67 1021.52 1021.33 1021.16 1020.94 1020.75 1020.51 1020.15 1019.78 1019.31 1018.89 1018.42 1018.14 1017.68 1016.95 1016.01 1015.10 1013.90 1013.17 1012.11 1011.33 1010.61 1009.93 1009.98 1009.86 1008.88 1006.33 1005.84 1005.36 1005.72 1006.18 1006.90 1007.57 1008.47 1009.31 1010.18 1010.81 1011.80 1012.70
1022.28 1021.94 1021.68 1021.42 1021.18 1021.02 1020.82 1020.63 1020.39 1020.20 1019.97 1019.64 1019.22 1018.88 1018.44 1017.96 1017.67 1017.22 1016.75 1016.35 1015.33 1014.01 1012.84 1011.75 1010.64 1010.39 1010.16 1010.29 1009.93 1009.64 1008.59 1008.04 1006.79 1005.50 1005.01 1005.60 1006.39 1007.31 1008.20 1009.10 1009.85 1010.73 1011.17
1021.81 1021.47 1021.23 1020.96 1020.76 1020.56 1020.42 1020.26 1019.98 1019.71 1019.46 1019.06 1018.60 1018.18 1017.77 1017.37 1017.15 1016.79 1016.40 1016.06 1015.59 1014.31 1012.50 1011.56 1010.72 1010.16 1010.11 1010.24 1010.09 1009.17 1008.51 1008.50 1006.74 1006.57 1006.19 1004.34 1005.27 1006.12 1006.94 1007.94 1008.86 1009.63 1010.42
1021.51 1021.19 1020.84 1020.57 1020.30 1020.04 1019.88 1019.72 1019.43 1019.09 1018.78 1018.45 1018.05 1017.58 1017.11 1016.82 1016.55 1016.22 1015.91 1015.61 1015.33 1014.82 1012.96 1012.14 1011.21 1010.62 1010.27 1009.90 1009.27 1009.53 1009.11 1008.52 1007.27 1006.93 1005.67 1005.10 1004.24 1004.96 1005.84 1006.72 1007.66 1008.26 1009.26
1021.17 1020.81 1020.53 1020.23 1019.90 1019.56 1019.30 1019.03 1018.71 1018.42 1018.07 1017.68 1017.36 1016.95 1016.42 1016.18 1015.84 1015.46 1015.13 1014.78 1014.38 1013.96 1012.63 1010.96 1011.10 1010.78 1010.42 1009.71 1009.24 1009.18 1008.20 1007.15 1006.42 1006.44 1005.39 1004.65 1003.90 1003.72 1004.70 1005.47 1006.39 1007.51 1008.31
1020.89 1020.48 1020.07 1019.69 1019.26 1018.83 1018.48 1018.13 1017.72 1017.38 1017.06 1016.66 1016.30 1016.06 1015.58 1015.37 1014.97 1014.79 1014.41 1013.91 1013.58 1013.31 1012.72 1011.37 1010.78 1010.38 1010.08 1009.29 1008.30 1008.22 1007.90 1007.90 1006.87 1006.28 1004.76 1004.58 1004.03 1002.95 1003.42 1004.29 1005.27 1006.32 1007.09
1020.39 1019.94 1019.48 1019.02 1018.51 1017.97 1017.50 1017.03 1016.58 1016.16 1015.79 1015.43 1015.18 1014.93 1014.62 1014.42 1014.05 1013.85 1013.56 1013.11 1012.67 1012.34 1011.94 1011.30 1009.98 1010.10 1009.44 1009.16 1008.66 1007.66 1006.69 1006.32 1006.12 1005.84 1003.55 1003.58 1002.34 1001.76 1001.89 1002.97 1003.99 1004.93 1005.96
1019.71 1019.16 1018.66 1018.17 1017.66 1017.08 1016.46 1015.85 1015.29 1014.77 1014.37 1014.04 1013.84 1013.71 1013.56 1013.39 1013.11 1012.92 1012.66 1012.32 1011.94 1011.55 1011.17 1010.69 1009.71 1009.56 1009.01 1007.77 1007.08 1006.64 1005.19 1005.62 1005.56 1004.20 1004.05 1002.57 1001.98 1000.94 1000.78 1001.79 1002.71 1003.41 1005.06
1018.88 1018.40 1017.82 1017.14 1016.45 1015.80 1015.12 1014.45 1013.79 1013.13 1012.72 1012.48 1012.34 1012.24 1012.18 1012.11 1011.96 1011.81 1011.64 1011.37 1011.22 1010.85 1010.41 1009.96 1009.32 1009.10 1008.60 1007.80 1007.12 1006.80 1006.76 1006.06 1004.90 1004.16 1003.57 1002.70 1003.21 1000.58 1000.05 1000.82 1001.78 1002.65 1003.64
1018.11 1017.53 1016.90 1016.19 1015.35 1014.57 1013.80 1012.84 1011.85 1011.18 1010.48 1010.45 1010.36 1010.36 1010.40 1010.45 1010.35 1010.33 1010.27 1010.24 1010.22 1009.99 1009.54 1009.25 1008.89 1008.15 1007.90 1007.30 1006.28 1005.59 1004.88 1005.06 1004.50 1005.21 1004.59 1003.81 1002.99 1001.59 1000.14 999.68 1000.45 1001.50 1002.48
1017.48 1016.81 1016.00 1015.26 1014.45 1013.63 1012.72 1011.57 1010.60 1010.02 1009.33 1008.82 1008.65 1008.70 1008.63 1008.57 1008.74 1008.85 1008.87 1008.69 1008.69 1008.58 1008.49 1008.67 1008.22 1007.44 1007.05 1006.99 1007.06 1006.80 1006.01 1005.75 1005.25 1004.58 1004.48 1003.38 1003.06 1002.18 1000.62 999.38 999.23 1000.31 1001.37
1016.87 1016.07 1015.28 1014.55 1013.75 1012.91 1011.92 1010.94 1010.03 1009.30 1008.40 1007.48 1007.23 1007.26 1007.33 1007.31 1007.36 1007.46 1007.61 1007.56 1007.49 1007.46 1007.37 1007.17 1006.86 1006.60 1006.38 1006.02 1006.13 1006.66 1006.53 1006.42 1005.65 1005.19 1005.42 1004.35 1002.78 1001.80 1000.12 999.59 998.87 998.69 999.86
1016.19 1015.50 1014.74 1013.92 1013.14 1012.30 1011.40 1010.42 1009.54 1008.81 1007.83 1006.91 1006.49 1006.42 1006.32 1006.18 1006.03 1006.09 1006.30 1006.44 1006.32 1006.15 1006.16 1005.99 1005.76 1005.53 1005.41 1005.14 1004.79 1004.57 1005.16 1005.39 1004.66 1004.43 1004.55 1003.59 1001.64 1002.62 999.97 998.78 997.90 997.17 998.53
1015.72 1015.00 1014.17 1013.39 1012.55 1011.72 1010.95 1009.90 1009.13 1008.38 1007.47 1006.65 1005.78 1005.44 1005.01 1004.90 1004.95 1004.93 1005.19 1005.36 1005.29 1005.01 1005.13 1004.97 1004.71 1004.47 1004.38 1004.46 1004.51 1004.32 1004.09 1004.39 1004.53 1004.01 1002.42 1002.78 1001.74 1002.00 1000.09 999.49 998.33 997.29 997.74
Wind_Speed
11 11 10 9 9 10 11 11 11 11 13 13 12 13 14 14 14 8 7 17 20 21 21 19 21 20 20 20 21 21 18 18 18 20 20 19 18 18 17 17 17 16 17
9 10 11 11 10 9 10 10 11 11 10 12 13 13 14 13 14 14 9 10 21 22 22 23 22 23 22 23 24 21 21 20 19 21 21 21 20 19 20 19 17 17 17
8 9 8 8 9 10 13 10 10 10 10 11 13 13 12 14 12 14 12 9 11 19 21 24 25 24 23 23 25 24 23 22 21 23 23 23 22 21 20 21 18 17 19
10 9 8 8 9 9 9 10 10 10 10 10 10 10 10 12 14 15 13 12 10 10 13 20 25 23 24 24 26 27 25 24 24 24 24 24 23 22 21 20 19 21 21
12 10 9 9 11 9 9 9 9 11 10 11 12 12 11 10 13 13 15 14 14 12 10 16 20 23 24 25 26 27 27 26 25 24 25 25 24 23 22 21 20 21 22
10 11 10 11 11 9 9 9 12 10 10 11 12 13 11 12 11 11 13 12 12 13 13 14 13 12 22 25 27 27 27 27 26 26 26 26 26 25 24 23 23 22 23
8 9 8 9 10 10 11 12 11 12 9 11 10 10 11 16 16 13 12 13 14 14 15 13 11 11 11 25 27 29 28 28 28 27 27 28 28 27 26 25 24 24 23
10 9 10 9 11 9 11 11 11 9 9 9 10 11 8 10 6 11 9 10 11 7 8 10 14 16 16 9 18 28 29 29 29 29 28 30 30 29 28 27 26 25 23
11 11 11 10 10 10 9 10 10 12 10 9 11 8 7 6 14 8 15 11 11 11 8 10 12 13 15 14 14 22 28 29 30 30 29 30 30 30 30 30 28 27 26
12 12 11 11 11 9 10 10 9 9 10 10 9 9 12 11 8 10 9 13 15 11 13 9 10 12 14 10 21 19 25 29 30 31 30 31 32 32 32 32 31 30 28
12 12 11 11 11 9 10 12 12 12 9 9 9 9 11 9 11 12 12 13 11 9 10 12 10 10 12 14 13 17 21 28 32 32 33 34 34 35 34 33 32 32 30
9 11 12 11 11 11 11 10 12 13 12 11 10 11 9 10 9 10 12 13 16 13 12 12 10 9 9 10 16 30 19 23 30 32 33 34 34 35 36 35 32 32 31
9 11 12 12 10 11 12 12 12 13 13 12 13 10 10 10 10 10 11 11 14 12 10 11 9 7 7 6 11 26 26 12 25 31 35 34 34 34 34 35 37 35 33
10 13 13 13 14 13 12 12 10 10 13 12 16 13 11 10 10 10 10 10 13 14 12 16 7 8 2 6 13 23 17 26 24 18 33 35 33 33 35 35 34 34 33
11 13 14 14 15 14 14 14 10 13 13 13 13 13 13 10 10 10 10 9 10 14 15 8 8 7 8 8 13 13 14 22 28 28 28 29 29 30 32 34 33 33 33
14 14 14 14 14 14 13 14 12 13 14 11 11 14 14 11 12 10 10 10 10 11 17 10 10 12 11 11 12 12 11 20 21 23 22 24 28 24 27 30 30 31 28
14 13 13 14 14 14 15 13 15 15 16 15 15 15 16 15 11 11 10 10 11 11 14 13 12 11 13 13 11 10 11 13 11 24 25 23 25 28 26 28 30 31 28
14 13 13 14 14 14 15 15 16 15 16 16 16 16 17 12 16 14 11 14 12 12 12 20 13 11 13 12 12 11 9 9 9 22 19 26 26 33 32 28 30 31 32
13 13 14 14 15 15 15 16 16 17 17 17 17 17 16 16 15 12 13 13 11 11 12 12 13 10 11 9 9 11 11 10 8 15 19 26 27 30 31 33 33 31 34
12 13 13 14 14 15 16 17 17 17 17 17 17 17 16 16 16 15 14 15 13 12 12 12 13 10 10 12 8 8 9 5 8 9 14 16 27 26 30 32 32 34 28
12 13 14 15 15 14 12 15 17 18 18 17 17 16 16 19 26 22 12 13 14 12 11 10 12 9 9 9 8 5 7 6 5 7 8 8 13 10 14 23 22 28 30
13 12 13 14 15 11 22 27 25 15 16 18 17 17 17 24 24 29 30 30 22 14 14 10 10 12 12 9 8 7 7 7 4 1 8 11 9 12 10 14 25 30 33
12 14 13 13 14 14 23 26 27 12 12 13 16 16 15 13 22 17 23 27 28 30 30 15 16 15 14 9 9 7 8 9 4 4 6 10 7 12 7 11 27 29 30
12 12 12 13 13 12 23 25 26 13 14 14 14 14 15 15 17 17 16 16 16 16 16 13 16 16 16 14 13 7 7 6 6 5 5 8 5 11 9 9 22 32 33
11 11 11 13 13 13 22 24 21 13 11 12 11 12 14 15 21 26 15 15 15 14 17 25 27 27 27 27 22 11 8 7 8 7 7 5 3 12 9 10 11 31 34
10 10 12 12 17 12 19 23 19 10 11 9 10 11 22 18 24 25 15 12 13 14 13 13 13 16 19 18 25 18 12 9 7 6 6 5 1 4 5 3 7 7 17
Wind_Direction
348 346 343 340 340 345 341 336 332 330 325 323 321 314 310 306 302 296 293 298 300 294 287 246 244 237 233 230 223 218 209 214 206 201 191 187 189 185 178 179 176 185 181
340 339 337 337 340 346 333 326 325 326 319 318 314 312 304 299 295 292 286 290 293 292 284 269 246 241 235 230 225 221 213 211 214 202 197 194 192 192 185 183 187 191 185
335 329 325 324 331 333 326 323 319 321 319 316 313 310 305 301 299 293 291 281 286 288 284 271 254 243 239 234 229 220 216 210 214 204 201 198 195 195 193 185 186 181 176
337 331 323 322 331 323 323 323 324 327 319 314 311 306 297 297 296 292 287 284 275 280 287 276 248 238 236 231 229 225 218 215 212 209 204 201 198 196 196 190 185 176 174
336 332 325 325 330 321 320 320 325 323 319 312 306 306 301 298 289 284 279 275 274 268 272 280 278 236 230 230 226 225 222 219 212 207 202 201 198 197 196 194 187 184 180
324 327 321 320 323 321 317 321 317 314 307 305 308 305 292 287 283 277 278 279 271 259 259 261 269 252 227 227 226 222 222 219 213 208 203 200 200 198 197 196 192 188 189
305 304 301 302 309 306 311 312 311 310 313 313 304 308 305 278 272 268 259 255 252 250 252 255 256 254 233 223 227 224 220 218 216 211 203 202 199 198 197 199 196 194 191
313 303 305 300 301 300 302 301 305 309 304 309 314 312 304 317 277 321 295 282 281 313 300 289 257 252 253 220 221 226 223 218 215 214 209 204 200 197 197 200 198 194 192
307 300 296 294 294 291 294 299 297 294 298 305 302 291 312 319 338 302 327 303 336 323 322 331 326 332 288 244 227 219 220 220 215 213 209 211 200 201 198 200 198 198 196
298 296 294 290 291 292 287 285 282 288 294 293 295 286 281 288 289 302 304 318 304 301 316 319 311 321 320 308 277 208 214 217 214 211 206 204 203 208 203 201 197 198 198
291 295 294 294 291 289 288 289 290 287 283 282 282 288 286 285 282 280 287 297 292 299 322 301 311 309 316 311 290 266 207 208 214 210 207 206 206 208 211 203 200 199 198
297 293 290 290 290 289 286 285 287 285 282 277 276 274 274 277 283 289 290 290 296 300 298 296 291 309 302 321 327 349 250 204 211 213 210 210 208 209 206 209 203 202 199
297 296 299 295 293 291 290 288 285 280 279 276 273 274 275 273 276 279 282 286 289 297 296 286 274 307 299 340 331 346 344 288 211 214 211 211 210 208 206 204 203 205 202
292 295 294 293 290 287 284 282 279 276 272 267 269 264 267 267 268 269 273 283 286 287 289 286 294 300 274 343 331 339 335 336 343 269 213 215 210 205 207 208 205 205 201
290 293 296 293 289 286 283 282 276 275 275 275 272 270 269 269 268 266 269 270 274 287 291 291 311 330 326 321 319 328 325 313 333 331 332 214 218 207 203 205 206 202 200
293 291 291 290 286 284 280 275 272 269 267 265 266 267 266 267 269 267 265 262 259 261 275 281 284 299 305 298 312 315 303 309 315 305 302 297 214 207 205 204 204 200 194
293 292 290 288 283 280 277 275 270 268 265 264 263 266 267 265 263 266 262 260 260 261 268 280 284 294 295 300 306 301 309 311 308 309 310 307 248 210 204 202 202 200 194
290 288 287 283 279 275 272 267 264 261 261 260 259 257 259 258 256 258 263 262 262 269 275 279 280 289 289 286 297 299 289 288 295 297 299 307 299 227 210 201 203 200 193
289 287 286 281 279 275 271 265 262 260 257 255 254 255 257 259 259 254 253 258 255 255 260 270 281 285 287 280 280 284 300 292 275 292 323 311 302 242 203 202 201 197 200
286 285 283 280 276 275 271 268 263 259 256 253 251 250 252 252 255 255 254 259 263 262 262 262 271 276 281 288 276 293 297 298 294 321 302 321 293 243 199 199 196 194 197
287 289 285 279 276 272 269 267 262 255 250 250 249 247 245 247 249 249 249 250 252 255 259 263 272 272 277 271 267 277 265 265 303 304 325 339 323 261 195 194 199 192 187
289 288 282 283 283 279 283 284 283 274 243 236 239 238 236 244 248 248 250 249 243 251 259 263 262 263 266 275 286 302 320 307 328 13 342 307 314 307 299 200 199 197 193
299 291 287 291 288 290 296 298 301 298 278 250 238 239 241 236 239 237 246 253 254 252 249 249 256 260 269 271 280 284 282 283 273 326 347 299 319 293 290 276 198 193 192
294 295 299 294 297 299 304 310 309 314 305 259 247 245 241 240 237 234 237 240 243 247 252 254 253 255 260 271 268 265 274 280 275 264 240 266 296 284 301 291 238 188 190
299 297 295 300 303 297 308 314 319 316 310 311 254 247 248 250 249 248 241 239 242 242 249 253 256 261 263 265 270 283 260 265 276 269 215 251 330 285 290 285 256 187 188
301 302 299 299 300 298 306 317 321 317 318 318 316 258 253 245 249 251 245 238 244 245 243 246 257 262 261 255 258 257 263 247 247 269 223 203 262 331 333 294 8 214 186